Showing default

KUIPER-00293, 68593

Orbit data source: Space-Track

KUIPER-00293, 68593 is a payload satellite owned by Kuiper Systems (US) in LEO that was launched on Sat, 04 Apr 2026 UTC via an ATLAS V 551 launch vehicle from the Air Force Eastern Test Range (AFETR). Payload-class satellites include a variety of spacecraft equipped with specific instruments for various scientific and technological missions. These include communications satellites like Starlink; space stations such as the ISS; scientific satellites like the Hubble; Earth observation satellites from companies like Planet Labs, Umbra, and HawkEye 360; GPS; miniature CubeSats for education and research; and military/defense satellites.

Loading next visibility...
Identifier
68593, 2026-072W
Orbit
LEO
Country
Flag of USUS
Related business
Manufacturer
Kuiper Systems
Mission
Operational spacecraft
Bus & Motor
KUIPER, Unknown motor
Mass
~490 kg wet, ~490 kg dry
Launch date (UTC)
2026-04-04 (2 months ago)
Launch vehicle
ATLAS V 551
Launch site
Air Force Eastern Test Range (AFETR)
Object type
Payload
Rocket body
Debris
Shape & HBR
Unknown shape, 3.4 m
Radar Cross Section
Large (>1 m²)

Expand to show TLE details & history
Last TLE update: 5 days ago

TLE from 5 days ago
0 KUIPER-00293
1 68593U 26072W   26155.25004630 -.00011143  00000-0 -13381-2 0  9997
2 68593  51.8972 245.3881 0012562   0.0696  72.2434 14.82761609  2393
Epoch: 2026-06-04T06:00Z
TLE epoch observation values (Epoch: 2026-06-04T06:00:04.000Z)
Latitude
48.76202°
Longitude
-34.48916°
Altitude
623.373 km
Speed
7.554 km/s
True Right ascension
20h 32m 53s
True Declination
48° 35' 17"
Sunlit
Object was in daylight at epoch
Visualization orbit readout
Latitude
Unknown
Longitude
Unknown
Altitude
Unknown
Speed
Unknown
Apparent Right ascension
Unknown
Apparent Declination
Unknown
Sunlit
N/A
Visualization observer readout
Local Sidereal Time
19:43:59
Azimuth
Unknown
Elevation
Unknown
Doppler factor
Unknown
Orbital elements
Apogee altitude
629.865 km
Perigee altitude
612.28 km
Semi-major axis
6,999.21 km
Eccentricity
0.00126
Inclination
51.8972°
RAAN
245.3881°
Arg. of periapsis
0.0696°
True anomaly
72.38056°
Mean anomaly
72.2434°
Eccentric anomaly
72.31197°
Mean motion
3.70655 °/min
Orbital period
97.13 mins
BSTAR
-0.0013381
Loading maneuver chart data...
Computing Atmospheric mass density...
Loading historical data...
Loading historical data...
Loading historical data...
Loading historical data...
Loading historical data...
Loading historical data...
Loading historical data...

Documentation

Showing up to 5 results
|